Location: Bauerbach
(50.4985°N, 10.3912°E)
Time: 18:24:26
(UTC+00:00)

Lacrosse 4 Rocket - Pass Details

Date: 13 January 2026
Orbit: 512 x 564 km, 68.0° (Epoch: 18 February)

Event Time Altitude Azimuth Distance (km) Brightness Sun altitude
Rises 05:39:45 0° 179° (S) 2,656 5.0 -14.5°
Reaches altitude 10° 05:42:15 10° 164° (SSE) 1,763 4.3 -14.1°
Maximum altitude 05:45:21 23° 112° (ESE) 1,154 4.0 -13.6°
Drops below altitude 10° 05:48:27 10° 59° (ENE) 1,756 4.5 -13.1°
Sets 05:50:56 0° 45° (NE) 2,642 5.2 -12.8°
